ImprimablePdf
Running Tour > 2011 - Antwerpen, 17/04/2011, BEL - DVV Antwerp 10 Miles
Liste des rapports > DVV Antwerp 10 Miles - Classement + Video
Recherche: Page: 1 2 3 4 5 6 7 8 9 10 11 12 13 14 15 16 17 18 19 20 21 22 23 24 25 26 27 28 29 30 31 32 33 34 35 36 37 38 39 40 41 42 43 44 45 46 47 48 49 50 51 52 53 54 55 56 [57] 58 59 60 61 62 63 64 65 66 67 68 69 70 71 72 73
14547 Entrées
 
Les réclamations ne sont plus acceptées, les résultats sont considérés comme définitifs.
Catégorie
PosNrNomIOCEquipeTempsTkmMoy.RangNomLocalité
11201.11623FCELIS DaisyBEL1:43:006:24 9.38311F40WUUSTWEZEL
11202.16950DE SCHEPPER Bart1:43:006:24 9.383811SEH
11203.6744PEETERS NilsBEL1:43:006:24 9.383812SEHSINT-JOB-IN-'T-
11204.13133FDEBURCHGRAVE FaraBEL1:43:006:24 9.38312F40BOECHOUT
11205.18930FLAMBRECHTS IlseBEL1:43:006:24 9.38376F35
11206.5004FDHOOGE HildeBELFEBELCO1:43:016:24 9.38377F35HAMME (O.-VL.)
11207.6466MICHIELS MarcBELCONTEC CV1:43:016:24 9.38691M50KAPELLEN
11208.2893FVAN ROMPAEY KristelBEL1:43:016:25 9.37313F40BINDERVELD
11209.5005FVERBERCKMOES KristienBELFEBELCO1:43:016:25 9.37378F35HAMME (O.-VL.)
11210.15787STUYCK Tim1:43:016:25 9.373813SEH
11211.8276FMEYERS BarbaraBELCAMPBELL FOODS 1:43:026:25 9.37314F40BORNEM
11212.13984MEYSMANS JohanBEL1:43:026:25 9.371000M45
11213.2313FPEETERS IngridBEL1:43:036:25 9.37-EKEREN (ANTWERP
11214.5342DE JONGE BartBEL1:43:036:25 9.371166M40GENT
11215.12288FDECKERS NadineBELPROVINCIE ANTWE1:43:036:25 9.37160F50BOOM
11216.6046FVAN SPAENDONK AnnBEL1:43:046:25 9.37273F45ANTWERPEN 1
11217.8948BEENS ToonBEL1:43:056:25 9.373814SEHMERKSEM (ANTWER
11218.16964VLAEMINCK Hubert1:43:056:25 9.37692M50
11219.15678DIJCKMANS Dany1:43:066:25 9.371106M35
11220.4232RUYMAEKERS DriesBEL1:43:066:25 9.373815SEHMOL
11221.11763HENDRICKX MaartenBELNATEUS1:43:076:25 9.37-POEDERLEE
11222.5553FVAN DEN BERGH ElsBEL1:43:076:25 9.37315F40BRECHT
11223.15955MOENS Vincent1:43:076:25 9.37-
11224.4053BALLIAUW KarelBEL1:43:076:25 9.37374M55BEVEREN
11225.5908FVAN OERS EllenBEL1:43:076:25 9.37962SEFBORSBEEK
11226.2947FTHOLLEBEEK KarenBEL1:43:086:25 9.36963SEFANTWERPEN
11227.14391FZELL Tessa1:43:086:25 9.36964SEF
11228.11122SAENEN YannickBELBDO SERVICE BUR1:43:086:25 9.36-X
11229.11121FVAN DINGENEN LiesbethBELBDO SERVICE BUR1:43:086:25 9.36-X
11230.13505REPS BramBEL1:43:086:25 9.36375M55
11231.5960FVAN DE LOOVERBOSCH JolienBEL1:43:086:25 9.36965SEFDEURNE
11232.3288FDEQUEKER EmilieBEL1:43:086:25 9.36966SEFGENT
11233.10359FTHYSSEN KatrienBELAZ NIKOLAAS1:43:096:25 9.36967SEFSINT- NIKLAAS
11234.8132FSERRIEN RitaBEL1:43:096:25 9.36274F45ARENDONK
11235.9439FADRIAENSEN NadineBEL1:43:096:25 9.36316F40ARENDONK
11236.8456FVAN DEN BOSCH MyriamBEL1:43:096:25 9.36317F40EKEREN
11237.19096VANCAUWENBERGHE JanBEL1:43:096:25 9.36376M55
11238.8471FWANT ElsBEL1:43:106:25 9.36318F40EKEREN (ANTWERP
11239.12610OVERMARS DaanBELUMICORE1:43:106:25 9.361001M45
11240.5154FSTEENHUIS JantyBEL1:43:106:25 9.36275F45OVERIJSE
11241.6604FVAN PRAET SuzanneBEL1:43:106:25 9.36968SEFZEMST
11242.4235VANLIMBERGEN MarioBEL1:43:106:25 9.361107M35MOL
11243.3385FVANDENBROUCKE ChristineBEL1:43:106:25 9.3660F55EVERBERG
11244.14024FHENDRICKX DorineBEL1:43:116:25 9.36969SEF
11245.10442VANDEWEYER RenkeBELAQUAFIN NV1:43:116:25 9.36-ANTWERPEN 1
11246.11335FMERCELIS MayBEL1:43:126:25 9.36161F50TURNHOUT
11247.8343FVAN ZOMEREN DanielleBELARGENTA1:43:126:25 9.36379F35HOEILAART
11248.15425FBROUWERS Veronique1:43:126:25 9.36970SEF
11249.12985FMARQUET VickyBEL1:43:126:25 9.36971SEFWUUSTWEZEL
11250.3297FBRAEM TaniaBEL1:43:126:25 9.36380F35WUUSTWEZEL
11251.11524FDE MEYER SophieBELDELOITTE1:43:136:25 9.36972SEFKONTICH
11252.8074FMEYLEMANS HildeBEL1:43:136:25 9.36162F50HERENTHOUT
11253.12345KRIECKEMANS MaartenBELLESSIUS1:43:136:25 9.363816SEHANTWERPEN
11254.1834HAMMEL MaximBEL1:43:136:25 9.363817SEHKAPELLEN
11255.4077BOYDENS EddyBEL1:43:136:25 9.36377M55HOEILAART
11256.12586ROMANDIC IgorBELUMICORE1:43:146:25 9.361167M40MORTSEL
11257.7171FVISKENS KristiaanBEL1:43:146:25 9.36319F40HULSHOUT
11258.14716FMUNOZ Lidia1:43:146:25 9.35973SEF
11259.4382FVAN DEN BROECK KarinBEL1:43:146:25 9.35276F45ANTWERPEN
11260.5093BRYS BartBELFEBELCO1:43:156:25 9.353818SEHSINT-NIKLAAS
11261.16712FVAN GOETHEM Griet1:43:156:25 9.35381F35
11262.2136VAN GEYSTELEN GuyBEL1:43:156:25 9.35378M55WILRIJK (ANTWER
11263.6085DE BEULE GinnyBEL1:43:156:25 9.351168M40ZELZATE
11264.1600FSTEURS LeenBEL1:43:156:25 9.35974SEFELEWIJT
11265.12924FBEYENS ErikaBEL1:43:156:25 9.35277F45TESSENDERLO
11266.14380FBOGAERTS Ann1:43:156:25 9.35278F45
11267.9519GRAVA MarcBEL1:43:156:25 9.351002M45NANDRIN
11268.11089GEYSKENS ErwinBEL1:43:156:25 9.351003M45DUFFEL
11269.14872PEETERS Valentijn1:43:166:25 9.351108M35
11270.16967FROTERMUND Romy1:43:166:25 9.35975SEF
11271.9528MEURANT ChristopheBEL1:43:166:25 9.351109M35NANDRIN
11272.8257FTHOEYE LeentjeBELGYPROC ISOVERT1:43:176:25 9.35382F35DE PINTE
11273.16970FMUELLER Michaela1:43:176:26 9.35279F45
11274.12901FSOUWENS KarenBEL1:43:176:26 9.35976SEFKURINGEN
11275.15353FSIMONS Joelle1:43:176:26 9.35977SEF
11276.7264FFRANCK KimBEL1:43:186:26 9.35978SEFWOMMELGEM
11277.12925BIESMANS DominiqueBEL1:43:196:26 9.351169M40ANTWERPEN
11278.7933VERNIERS DirkBELHP1:43:196:26 9.351170M40SCHILDE
11279.4079FCORNELISSEN IngeBEL1:43:196:26 9.35320F40BOUTERSEM
11280.11712JESPERS DirkBELGEMEENTELIJK HA1:43:196:26 9.351004M45EKEREN (ANTWERP
11281.13853FVAN DAELE NatalieBEL1:43:196:26 9.35979SEF
11282.11213CRUCITTI FedericoBEL1:43:196:26 9.353819SEHBERCHEM (ANTWER
11283.6074FDEDRIE AnnickBEL1:43:206:26 9.35280F45BRASSCHAAT
11284.8916TORFS JanneBEL1:43:206:26 9.35-X
11285.3336FVANHESE MireilleBEL1:43:206:26 9.35281F45HERK-DE-STAD
11286.7365FVAN DIJCK GreetBEL1:43:206:26 9.35321F40WILRIJK
11287.8307MATHIEU KarelBELAVERY DENNISON1:43:206:26 9.351005M45TURNHOUT
11288.5138VANDERVELPEN ChrisBEL1:43:216:26 9.353820SEHSINT-TRUIDEN
11289.15861FBARTHOLOMEEUSEN Evelyne1:43:216:26 9.34980SEF
11290.4960DUJARDIN TomBELFEBELCO1:43:216:26 9.341006M45KORTRIJK
11291.14614FSIMONS Crista1:43:226:26 9.34163F50
11292.5504DYBOWSKI SteveBELSGS GROEP BELGI1:43:226:26 9.341110M35MERKSEM (ANTWER
11293.7464GLOTZ DavidBEL1:43:226:26 9.341111M35WAUDREZ
11294.2752STAQUET MathiasBEL1:43:226:26 9.343821SEHANTWERPEN
11295.10627MAECKELBERGHE LeoBEL1:43:226:26 9.34379M55LIER
11296.19407THYSSEN LotteBEL1:43:236:26 9.343822SEH
11297.14616FRANCK Sven1:43:236:26 9.341007M45
11298.2796FMULDER StephanieBEL1:43:236:26 9.34981SEFGIERLE
11299.9531BOLS GuntherBEL1:43:236:26 9.341112M35ANTWERPEN
11300.2291FVETS EvaBEL1:43:246:26 9.34383F35BERCHEM
11301.15973FWEISE Veerle1:43:256:26 9.34282F45
11302.12598CAERS DannyBELUMICORE1:43:256:26 9.34380M55SCHELLE
11303.5209FALDERWEIRELDT CarineBEL1:43:256:26 9.34164F50HOEILAART
11304.4959FBOUCHE KatrienBELFEBELCO1:43:256:26 9.34982SEFKORTRIJK
11305.11058FMAES LieselotteBEL1:43:256:26 9.34983SEFANTWERPEN
11306.12662FHOOGEWYS LiseBELINTERSOC1:43:256:26 9.34984SEFMERCHTEM
11307.12509FTRUYENS AnnBEL1:43:256:26 9.34-BORSBEEK (ANTW.
11308.14707FVANLIER Linzy1:43:256:26 9.34985SEF
11309.10486FJACOBS PatriciaBEL1:43:256:26 9.34322F40MECHELEN
11310.19202LAUREYS RikBEL1:43:256:26 9.34381M55
11311.15324PORTO CARRERO Rafael1:43:266:26 9.343823SEH
11312.7318DEBEUL KarlBEL1:43:266:26 9.34-LINT
11313.10018FKEMELS KristinBELFIDEA NV1:43:266:26 9.34323F40RIJMENAM
11314.2742VOSSEN KrisBEL1:43:266:26 9.341113M35ANTWERPEN 1
11315.2119FVAN DER BORGHT LiesbethBEL1:43:266:26 9.34986SEFBORSBEEK (ANTW.
11316.15872BUYSSE Marold1:43:266:26 9.34693M50
11317.2472FBELMANS KarenBEL1:43:276:26 9.34987SEFONZE LIEVE VROU
11318.12369DE BONDT EmielBELINTERSOC1:43:276:26 9.341008M45KALMTHOUT
11319.12703SCHELKENS CarineBELINTERSOC1:43:276:26 9.34694M50BREENDONK
11320.14619DENS Filip1:43:276:26 9.341009M45
11321.13608FDE PAUW FannyBEL1:43:276:26 9.34324F40
11322.2437FLAUREYS JanBEL1:43:276:26 9.34325F40HOBOKEN
11323.13671GYS TomBELTOTAL1:43:286:26 9.331114M35
11324.15466VANIMSCHOOT Maarten1:43:286:26 9.333824SEH
11325.15492GYSELINCKX Dirk1:43:286:26 9.33695M50
11326.14087GOETHAERT StefanBEL1:43:286:26 9.331171M40
11327.19231FTENGROOTENHUYSEN HeidiBEL1:43:296:26 9.33326F40
11328.18338FMETSU LiesBEL1:43:296:26 9.33988SEF
11329.13543GEVERS StephaneBEL1:43:296:26 9.333825SEH
11330.9742FDE FOUR DorienBELDEFENSIE1:43:306:26 9.33165F50RUMST
11331.10040FVAN HAEREN IngeBEL1:43:306:26 9.33327F40ST.LENAERTS
11332.6164GHIELENS DannyBEL1:43:306:26 9.331010M45ZOERSEL
11333.14052FDE PAUW JasmineBEL1:43:316:26 9.33989SEF
11334.10037FFRANSEN GrietBEL1:43:316:26 9.33328F40MEER
11335.6033FVAN MEERBEEK DorienBEL1:43:316:26 9.33990SEFBALEN
11336.9666CLEEREN ChristopheBELPWC1:43:316:26 9.33-BRUXELLES 19
11336.14264FVAN PUT MireilleBEL1:43:316:26 9.33166F50
11338.8373MARIEN LievenBELARGENTA1:43:316:26 9.33382M55PUTTE
11339.10833FCOMPERNOLLE GrietBEL1:43:326:26 9.33384F35HEVERLEE
11340.7970JERVIS StuartBELDESCO NV1:43:326:26 9.333826SEHMOERKERKE
11341.4314COSTEUR FilipBEL1:43:326:26 9.33383M55HEULE
11342.5727FDELIRE LaurenceBEL1:43:326:26 9.33283F45WATERLOO
11343.6636SCHOENMAEKERS DieterBEL1:43:326:26 9.333827SEHVOSSELAAR
11344.6361FRASPOET LutBEL1:43:326:26 9.33329F40BRUSSEL
11345.18578FNUYTENS ClaireBEL1:43:326:26 9.33385F35
11346.5394LEEMANS SergeBEL1:43:326:26 9.333828SEHEKEREN (ANTWERP
11347.4939FCATRY LauraBELFEBELCO1:43:326:26 9.33991SEFKORTRIJK
11348.15608FGALOT Louise1:43:326:26 9.33992SEF
11349.3887RENDERS ClementBEL1:43:336:26 9.33384M55BRASSCHAAT
11350.11338FVAN DER KLEI IrisBEL1:43:336:26 9.33993SEFTURNHOUT
11351.7180SCHELDEMAN PatrickBEL1:43:336:26 9.33696M50ESSEN
11352.722VERHEYEN FelixBEL1:43:336:26 9.33697M50OUD-TURNHOUT
11353.5384FWILLEMS HeleenBEL1:43:336:27 9.33994SEFDEURNE
11354.8367FLEPOUTRE RitBELARGENTA1:43:336:27 9.33995SEFANTWERPEN
11355.12629WERNAERTS JaimyBELUMICORE1:43:346:27 9.33-HEMIKSEM
11356.10980VIGOUREUX SamBEL1:43:346:27 9.333829SEHBERCHEM
11357.11762GIELEN PeterBELNATEUS1:43:346:27 9.32385M55EDEGEM
11358.14445ERALDY Emmanuel1:43:356:27 9.323830SEH
11359.7567FNIJS BieBEL1:43:356:27 9.32386F35HALLE
11360.1404VAN DE KERCKHOVE MarkBEL1:43:356:27 9.32145M60GULLEGEM
11361.6923FVAN DAELE MyrnaBELFABORY1:43:356:27 9.32284F45MELSELE
11362.12274ADRIAENSSENS MarcelBELPROVINCIE ANTWE1:43:366:27 9.32698M50MEER
11363.3389FVAN GORP JuneBEL1:43:366:27 9.32996SEFWEELDE
11364.18746FLOWIE SabineBEL1:43:366:27 9.32330F40
11365.7047VAN BROECK WimBELBASF1:43:376:27 9.323831SEHMEERDONK
11366.2512DELBAEN FilipBEL1:43:376:27 9.321115M35MORTSEL
11367.9234HEYRICK JanBEL1:43:376:27 9.321011M45BRASSCHAAT
11368.7117FVERHAEGEN ElineBELSONEPAR BELGIUM1:43:376:27 9.32-GENT
11369.9235FVAN HAVENBERGH AnnBEL1:43:386:27 9.32285F45BRASSCHAAT
11370.12103FMALFLIET KarinBEL1:43:386:27 9.32286F45HAMME (O.-VL.)
11371.7114VAN OVERLOOP KristofBELSONEPAR BELGIUM1:43:386:27 9.32-STEENDORP
11372.10370FVAN VOSSELEN PascaleBELAZ NIKOLAAS1:43:386:27 9.32331F40MELSELE
11373.10633DE COCK WouterBEL1:43:386:27 9.323832SEH0OSTENDE
11374.11005FVAN DEN BOSSCHE ColetteBEL1:43:386:27 9.3261F55SCHOTEN
11375.9412FVERHEYDEN JudithBEL1:43:386:27 9.32997SEFHAMME
11376.16860HUYBRECHTS Arne1:43:386:27 9.32-
11377.12237FADRIAENSSENS LotteBELPROVINCIE ANTWE1:43:396:27 9.32998SEFANTWERPEN
11378.5020FDIERICK HildeBELFEBELCO1:43:396:27 9.32167F50KNOKKE-HEIST
11379.11082VANDENBERGHE FrederikBEL1:43:406:27 9.321116M35GENTBRUGGE
11380.9773FDEBRUYCKER KathyBEL1:43:406:27 9.32287F45WETTEREN
11381.6316FCORREA VictoriaBEL1:43:406:27 9.32999SEFANTWERPEN
11382.3388VAN GORP MichelBEL1:43:406:27 9.321172M40WEELDE
11383.19147FMERCKX GreetBEL1:43:406:27 9.3262F55
11384.1862FSMETS AnnebelleBEL1:43:406:27 9.321000SEFHOVE
11385.15502FVANDERHEYDE Lobke1:43:406:27 9.321001SEF
11386.7290FCOPPENS AstridBEL1:43:416:27 9.32288F45BRECHT
11387.5812VERBEEMEN PieterBEL1:43:416:27 9.323833SEHANTWERPEN
11388.18908VERTOMMEN RudiBEL1:43:416:27 9.311173M40
11389.19055FVAN HOOF SonjaBELBOKS ZVW1:43:416:27 9.31289F45
11390.3499FCOPPENS LiesbethBEL1:43:426:27 9.311002SEFROESELARE
11391.5365FDEGROOTE DelfienBEL1:43:426:27 9.311003SEFROESELARE
11392.2965FDE VRIES Ji HeeBEL1:43:426:27 9.31387F35ANTWERPEN
11393.5747FDE PESSEMIER AlineBELFLANDERS INT.CO1:43:426:27 9.311004SEFANTWERPEN 1
11394.9909VAN REETH WimBEL1:43:426:27 9.313834SEHANTWERPEN
11395.4505FENGELS TruiBEL1:43:426:27 9.311005SEFANTWERPEN 1
11396.13323CASSIERS DimitriBEL1:43:436:27 9.313835SEH
11397.9976CARREIN GuyBELMONSANTO EUROPE1:43:436:27 9.31699M50ALSEMBERG
11398.5478FVANISTENDAEL NancyBEL1:43:446:27 9.31290F45WESTERLO
11399.8818AGRIS AnisBEL1:43:446:27 9.313836SEHDEURNE (ANTWERP
11400.10397FVANDEPITTE LiesbethBELUNIVERSTITEIT G1:43:446:27 9.311006SEFGENT
DNF: abandon; DSQ: disqualifié; Vitesse en km/h
ChronoRace - Electronic Timing - www.chronorace.be